SCP
0 0 0 0 0 0 0 0 0 0 0 0 0 0 0 0 0 0 0 0 0 0 0 0 0 0 0 0 0 0 0 0 0 0 0 0 0 0 0 0 0 0 0
0 0 0 0 0 0 0 0 0 0 0 0 0 0 0 0 0 0 0 0 0 0 0 0 0 0 0 0 0 0 0 0 0 0 0 0 0 0 0 0 0 0 0
0 0 0 0 0 0 0 0 0 0 0 0 0 0 0 0 0 0 0 0 0 0 0 0 0 0 0 0 0 0 0 0 0 0 0 0 0 0 0 0 0 0 0
0 0 0 0 0 0 0 0 0 0 0 0 0 0 0 0 0 0 0 0 0 0 0 0 0 0 0 0 0 0 0 0 0 0 0 0 0 0 0 0 0 0 0
0 0 0 0 0 0 0 0 0 0 0 0 0 0 0 0 0 0 0 0 0 0 0 0 0 0 0 0 0 0 0 0 0 0 0 0 0 0 0 0 0 0 0
0 0 0 0 0 0 0 0 0 0 0 0 0 0 0 0 0 0 0 0 0 0 0 0 0 0 0 0 0 0 0 0 0 0 0 0 0 0 0 0 0 0 0
0 0 0 0 0 0 0 0 0 0 0 0 0 0 0 0 0 0 0 0 0 0 0 0 0 0 0 0 0 0 0 0 0 0 0 0 0 0 0 0 0 0 0
0 0 0 0 0 0 0 0 0 0 0 0 0 0 0 0 0 0 0 0 0 0 0 0 0 0 0 0 0 0 0 0 0 0 0 0 0 0 0 0 0 0 0
0 0 0 0 0 0 0 0 0 0 0 0 0 0 0 0 0 0 0 0 0 0 0 0 0 0 0 0 0 0 0 0 0 0 0 0 0 0 0 0 0 0 0
0 0 0 0 0 0 0 0 0 0 0 0 0 0 0 0 0 0 0 0 0 0 0 0 0 0 0 0 0 0 0 0 0 0 0 0 0 0 0 0 0 0 0
0 0 0 0 0 0 0 0 0 0 0 0 0 0 0 0 0 0 0 0 0 0 0 0 0 0 0 0 0 0 0 0 0 0 0 0 0 0 0 0 0 0 0
0 0 0 0 0 0 0 0 0 0 0 0 0 0 0 0 0 0 0 0 0 0 0 0 0 0 0 0 0 0 0 0 0 0 0 0 0 0 0 0 0 0 0
0 0 0 0 0 0 0 0 0 0 0 0 0 0 0 0 0 0 0 0 0 0 0 0 0 0 0 0 0 0 0 0 0 0 0 0 0 0 0 0 0 0 0
0 0 0 0 0 0 0 0 0 0 0 0 0 0 0 0 0 0 0 0 0 0 0 0 0 0 0 0 0 0 0 0 0 0 0 0 0 0 0 0 0 0 0
0 0 0 0 0 0 0 0 0 0 0 0 0 0 0 0 0 0 0 0 0 0 0 0 0 0 0 0 0 0 0 0 0 0 0 0 0 0 0 0 0 0 0
0 0 0 0 0 0 0 0 0 0 0 0 0 0 0 0 0 0 0 0 0 0 0 0 0 0 0 0 0 0 0 0 0 0 0 0 0 0 0 0 0 0 0
0 0 0 0 0 0 0 0 0 0 0 0 0 0 0 0 0 0 0 0 0 0 0 0 0 0 0 0 0 0 0 0 0 0 0 0 0 0 0 0 0 0 0
0 0 0 0 0 0 0 0 0 0 0 0 0 0 0 0 0 0 0 0 0 0 0 0 0 0 0 0 0 0 0 0 0 0 0 0 0 0 0 0 0 0 0
0 0 0 0 0 0 0 0 0 0 0 0 0 0 0 0 0 0 0 0 0 0 0 0 0 0 0 0 0 0 0 0 0 0 0 0 0 0 0 0 0 0 0
0 0 0 0 0 0 0 0 0 0 0 0 0 0 0 0 0 0 0 0 0 0 0 0 0 0 0 0 0 0 0 0 0 0 0 0 0 0 0 0 0 0 0
0 0 0 0 0 0 0 0 0 0 0 0 0 0 0 0 0 0 0 0 0 0 0 0 0 0 0 0 0 0 0 0 0 0 0 0 0 0 0 0 0 0 0
0 0 0 0 0 0 0 0 0 0 0 0 0 0 0 0 0 0 0 0 0 0 0 0 0 0 0 0 0 0 0 0 0 0 0 0 0 0 0 0 0 0 0
0 0 0 0 0 0 0 0 0 0 0 0 0 0 0 0 0 0 0 0 0 0 0 0 0 0 0 0 0 0 0 0 0 0 0 0 0 0 0 0 0 0 0
0 0 0 0 0 0 0 0 0 0 0 0 0 0 0 0 0 0 0 0 0 0 0 0 -0 0 0 0 0 0 0 0 0 0 0 0 0 0 0 0 0 0 0
0 0 0 0 0 0 0 0 0 0 0 0 0 0 0 0 0 0 0 0 0 0 0 0 0 0 0 0 0 0 0 0 0 0 0 0 0 0 0 0 0 0 0
0 0 0 0 0 0 0 0 0 0 0 0 0 0 0 0 0 0 0 0 0 0 0 0 0 0 0 0 0 0 0 0 0 0 0 0 0 0 0 0 0 0 0
Wind_Speed
1 2 2 3 5 7 9 9 9 9 9 9 10 11 11 12 12 12 12 13 13 14 14 15 15 15 16 16 16 16 16 16 16 16 15 15 15 16 16 15 13 9 16
1 1 0 3 6 8 9 9 9 9 9 9 10 10 11 11 12 12 12 12 13 14 14 14 15 16 16 16 16 16 16 16 16 15 14 12 13 15 16 14 13 9 15
1 0 0 4 7 8 9 9 9 9 9 9 9 9 10 11 12 12 12 12 13 14 14 15 15 15 15 15 15 15 15 15 15 14 12 7 9 15 15 14 14 15 15
2 1 1 5 7 8 9 9 9 9 9 9 9 9 10 11 11 12 12 12 12 13 13 14 14 14 14 14 14 14 15 15 14 13 7 6 6 13 15 14 14 15 15
3 2 2 6 7 8 9 9 9 9 9 9 9 9 10 10 11 12 12 11 11 11 12 13 13 14 13 13 13 14 14 14 13 10 6 6 5 12 14 14 14 15 15
4 3 3 7 7 8 9 9 9 9 9 9 10 10 10 10 11 11 11 11 11 11 11 12 13 13 13 13 13 13 13 13 10 6 6 5 5 11 13 14 14 15 15
4 4 4 7 8 8 9 9 9 9 9 10 10 10 11 11 11 10 10 10 10 10 11 11 12 12 12 12 12 13 12 12 7 6 5 5 6 12 12 13 13 14 14
5 4 4 6 8 8 9 9 9 9 9 9 9 10 10 11 11 10 9 9 10 10 10 11 11 12 12 11 12 12 11 10 7 6 4 4 8 11 12 12 12 12 13
5 5 4 4 5 7 9 9 9 9 9 9 9 10 10 10 10 10 9 9 9 9 10 10 10 11 12 11 11 12 11 11 6 4 4 3 8 11 12 11 12 12 11
5 5 5 5 5 5 5 9 9 10 11 11 11 11 11 10 9 9 8 8 8 9 9 10 10 10 11 11 11 11 11 8 5 4 3 4 9 10 11 11 11 11 11
4 4 5 5 5 5 5 7 8 9 10 10 9 11 9 6 6 6 8 9 8 9 9 10 10 10 10 9 10 10 8 3 4 3 2 6 9 10 10 10 10 11 11
3 3 4 4 4 4 4 4 4 5 5 6 5 6 5 5 5 6 9 10 10 9 9 10 10 9 7 4 6 7 3 4 3 3 3 7 8 9 10 10 10 10 10
3 3 3 3 4 4 3 3 3 3 3 5 6 5 4 4 4 4 4 5 6 7 5 5 5 4 4 3 3 3 4 3 2 2 3 8 8 9 9 9 10 10 10
3 3 2 3 3 4 3 3 3 3 3 3 3 4 3 3 3 3 3 3 3 2 3 3 3 4 4 4 4 4 4 3 2 2 3 7 7 8 8 9 9 9 9
2 2 2 3 3 3 4 3 3 3 3 3 3 3 3 3 3 3 2 3 3 2 3 3 3 3 4 4 4 4 4 3 3 3 2 6 7 7 7 7 7 8 8
2 2 2 3 3 3 3 3 3 2 3 3 3 3 3 3 2 2 2 2 3 2 2 2 2 3 3 3 3 3 3 3 3 3 3 4 6 7 6 6 6 6 7
2 1 2 3 3 3 3 3 3 2 2 3 2 3 3 3 2 2 2 2 2 2 2 3 3 2 3 3 3 3 3 3 3 3 3 3 3 5 6 6 6 6 6
2 2 2 2 3 3 3 3 3 2 2 2 2 2 3 3 3 2 2 2 2 2 2 2 2 2 2 2 2 2 2 2 3 3 3 3 2 2 4 6 6 6 5
2 2 2 3 3 3 3 3 3 2 2 2 2 2 2 2 3 2 2 1 2 2 2 2 2 2 2 2 2 2 2 2 2 2 2 3 2 3 2 4 6 6 6
2 3 3 3 3 3 2 2 2 2 2 2 1 1 1 2 2 2 2 2 2 2 2 2 2 2 1 1 2 2 2 1 1 1 1 2 2 3 2 3 3 4 5
3 3 3 3 3 2 2 1 1 0 0 1 1 1 1 1 2 2 2 2 2 2 2 2 2 2 2 1 2 1 2 2 2 1 1 1 2 2 2 2 2 2 2
2 2 2 2 2 2 1 1 1 1 1 1 1 1 1 1 1 1 2 1 1 2 2 2 2 1 1 1 1 2 0 1 1 1 1 1 1 1 2 2 2 2 1
1 1 1 2 2 2 2 2 2 2 2 2 2 1 1 0 0 1 1 1 1 1 1 1 1 2 1 0 1 2 3 3 1 1 0 0 0 1 0 1 1 1 1
0 0 1 1 2 2 2 2 2 1 0 1 1 1 1 0 0 0 1 1 1 1 1 1 1 1 2 1 1 1 1 2 2 1 1 1 1 1 1 1 1 1 1
0 0 1 1 2 2 2 2 1 1 0 1 1 1 1 1 1 0 1 1 1 1 1 2 2 1 1 2 1 0 0 1 1 2 2 1 1 1 1 2 1 1 1
2 2 1 1 1 2 1 1 1 1 1 1 1 1 1 1 1 1 1 1 1 1 2 2 2 2 2 1 1 1 1 1 2 2 2 2 3 2 2 2 2 2 1
Wind_Direction
287 305 290 83 87 91 89 86 84 86 93 99 102 104 102 100 97 96 95 96 96 95 92 89 89 87 84 82 80 79 77 76 76 75 73 75 79 81 82 80 77 74 80
218 281 277 90 92 92 88 85 84 83 87 93 101 106 105 102 100 98 97 96 96 95 92 90 89 88 85 83 81 80 79 78 77 74 69 68 75 81 82 82 82 82 83
97 2 132 92 94 92 90 86 82 82 85 89 95 105 107 104 100 97 95 95 95 94 92 90 90 89 87 85 83 82 81 80 78 75 68 58 74 82 83 82 83 83 83
90 51 67 93 98 95 92 90 86 82 81 83 89 96 105 104 101 96 93 92 93 94 92 90 90 90 89 88 86 85 84 81 77 73 58 52 66 83 82 81 82 83 83
80 50 63 93 100 98 95 92 89 84 82 80 81 86 94 100 100 96 93 91 91 92 92 92 92 92 90 90 89 88 86 82 75 65 53 52 60 84 83 81 81 83 83
76 54 60 90 98 98 95 91 90 88 85 82 81 81 86 90 95 97 93 91 92 95 96 95 93 93 90 90 90 90 88 82 70 60 55 52 61 84 86 83 83 82 82
84 61 62 82 89 94 94 91 89 88 86 83 82 81 81 82 85 90 94 93 91 93 96 96 96 94 92 91 90 89 87 81 70 61 55 53 70 85 88 87 85 85 84
87 68 67 80 80 82 87 90 89 87 86 83 80 79 79 79 79 81 90 91 91 91 95 96 97 96 94 92 91 88 83 78 70 63 56 58 77 87 89 88 87 86 86
79 67 58 64 72 73 76 80 80 79 81 81 78 75 71 72 76 74 78 89 89 91 92 95 97 95 93 91 90 85 80 72 60 56 59 61 78 87 90 89 89 86 86
72 66 59 55 61 67 72 74 72 70 69 69 68 66 62 58 63 65 62 75 85 89 88 90 93 95 91 86 85 81 77 68 50 49 47 68 79 86 90 88 90 89 87
69 59 61 61 59 61 67 73 71 69 65 63 60 61 59 45 41 48 53 59 69 79 83 85 88 90 87 81 80 76 72 58 50 44 43 71 84 87 89 88 89 88 86
107 74 63 68 70 66 68 67 65 66 61 57 54 50 52 50 45 48 48 52 53 59 70 75 79 78 78 69 69 71 62 57 53 37 50 70 84 89 89 86 88 89 87
133 100 74 74 80 80 79 77 70 70 63 56 55 50 54 54 48 46 44 39 39 45 46 56 61 56 63 70 70 67 62 61 48 32 43 67 80 89 91 87 87 89 85
121 117 97 85 85 82 81 81 80 78 75 68 58 56 59 58 52 47 48 39 37 38 42 41 58 59 61 65 73 73 66 60 46 35 38 60 72 84 88 87 85 87 85
129 130 117 103 99 94 89 84 80 82 81 74 63 58 65 72 66 56 46 45 38 38 54 49 59 70 68 64 68 75 73 64 55 46 29 49 64 77 87 89 88 87 86
150 147 133 119 110 102 95 95 90 84 87 82 69 55 62 72 77 68 57 48 38 31 44 60 58 81 75 75 70 66 68 66 61 55 41 37 49 65 77 83 87 88 88
155 129 137 129 110 111 106 102 94 89 88 85 76 62 62 66 76 79 72 55 36 28 44 62 52 69 82 78 69 59 59 59 62 57 50 43 36 50 66 74 76 81 83
111 119 127 124 117 114 110 108 104 95 92 86 78 68 64 63 66 74 76 63 44 43 49 70 64 63 74 78 72 55 48 50 54 58 57 50 46 41 51 66 64 66 71
114 115 107 109 117 112 101 94 93 92 87 90 83 74 64 67 68 69 68 57 57 61 51 67 55 67 86 86 93 74 52 49 40 52 58 53 53 54 47 51 54 57 61
95 95 92 83 82 94 95 84 77 78 72 78 83 80 82 81 81 79 69 49 52 66 58 66 65 49 65 100 96 68 47 40 43 45 51 52 52 54 55 54 49 40 48
74 77 77 75 73 86 91 102 106 95 66 66 79 81 87 80 91 95 86 67 56 68 59 83 82 69 41 52 98 64 26 40 51 35 35 69 60 52 54 51 50 44 25
91 85 80 78 75 86 81 106 120 117 97 52 44 57 68 82 101 108 112 111 85 75 61 71 76 94 44 21 125 127 87 341 359 6 14 81 71 58 54 42 44 40 29
90 99 98 72 67 63 63 72 65 56 45 34 11 353 348 31 130 119 127 123 124 126 140 144 125 121 153 325 357 141 155 206 248 311 318 76 119 104 69 36 32 12 10
176 94 86 84 73 70 86 90 106 111 106 266 278 293 327 339 236 144 143 145 155 155 167 185 149 144 148 177 326 348 123 155 163 227 277 268 254 231 261 311 317 314 331
81 90 98 85 67 62 72 90 99 78 322 332 359 335 318 321 330 334 150 158 178 185 194 192 171 173 170 178 184 304 29 46 127 168 226 249 277 248 248 249 238 249 264
42 46 53 77 54 53 63 72 69 72 13 9 341 303 291 299 310 316 285 204 208 205 207 204 192 187 192 184 186 196 208 198 188 176 203 221 246 259 261 241 223 227 234